Regional Weather Roundup
Issued by NWS

Home | Current Version | Previous Version | Text Only | Print | Product List | Glossary On
Versions: 1 2 3 4 5 6 7 8 9 10 11 12 13 14 15 16 17 18 19 20 21 22 23 24 25 26 27 28 29 30 31 32 33 34 35 36 37 38 39 40 41 42 43 44 45 46 47 48 49 50
000
ASUS43 KMKX 181020
RWRWI

WISCONSIN REGIONAL WEATHER ROUNDUP
NATIONAL WEATHER SERVICE MILWAUKEE/SULLIVAN WI
400 AM CST THU JAN 18 2018

NOTE: "FAIR" INDICATES FEW OR NO CLOUDS BELOW 12,000 FEET WITH NO
SIGNIFICANT WEATHER AND/OR OBSTRUCTIONS TO VISIBILITY.

WIZ001-002-006>008-014>016-023>028-181100-
NORTHWEST WISCONSIN

CITY           SKY/WX    TMP DP  RH WIND       PRES   REMARKS
SUPERIOR ARPT  FAIR      25  19  78 SW7       29.81F WCI  17
ASHLAND        NOT AVBL
HAYWARD        FAIR      20  15  81 SW7       29.84F WCI  11
SIREN          FAIR      26  19  74 SW10      29.86F WCI  16
CUMBERLAND     FAIR      21  16  79 SW12      29.89F WCI   9
RICE LAKE      FAIR      21  16  81 CALM      29.92F
CHETEK         FAIR      19  15  86 CALM      29.93F
LADYSMITH      FAIR      17  14  88 S3        29.91F
EAU CLAIRE     FLURRIES  21  15  78 SW9       29.95F WCI  11
MENOMONIE      FAIR      22  16  78 SW7       29.96F WCI  13
NEW RICHMOND   FAIR      21  15  78 SW8       29.94F WCI  11
OSCEOLA        FAIR      25  18  76 SW7       29.95F WCI  17
$$

WIZ003>005-009-010-017-018-181100-
NORTH CENTRAL WISCONSIN

CITY           SKY/WX    TMP DP  RH WIND       PRES   REMARKS
MANITOWISH WTR FAIR      17  15  90 SW7       29.81F WCI   8
ARBOR VITAE    FAIR      22  18  84 W6        29.82F WCI  14
WOODRUFF       FAIR      22  18  84 W6        29.82F WCI  14
RHINELANDER    FAIR      17  14  88 W10       29.85F WCI   5
EAGLE RIVER    FAIR      13  10  87 SW5       29.82F WCI   6
LAND O LAKES   FAIR      19  16  86 W7        29.81F WCI  10
PHILLIPS       FAIR      19  15  87 SW8       29.85F WCI   8
TOMAHAWK       FAIR      19  15  84 CALM      29.87F
MEDFORD        FAIR      18  13  82 SW8       29.90F WCI   7
MERRILL        FAIR      19  14  81 W6        29.90F WCI  11
$$

WIZ029-030-035-036-043>047-181100-
CENTRAL WISCONSIN

CITY           SKY/WX    TMP DP  RH WIND       PRES   REMARKS
WAUSAU         FAIR      19  14  81 SW7       29.91F WCI  10
MOSINEE        FAIR      18  14  86 W10       29.94F WCI   6
MARSHFIELD     FAIR      18  13  80 W10       29.93F WCI   6
STEVENS POINT  FAIR      18  13  80 SW6       29.96F WCI  10
WAUPACA        FAIR      24  15  68 SW8       29.98S WCI  15
WAUTOMA        FAIR      18  12  77 SW6       30.00F WCI  10
WISC RAPIDS    FAIR      18  10  71 SW7       29.98F WCI   9
CAMP DOUGLAS   FAIR      20  13  74 SW9       30.00F WCI   9
$$

WIZ011>013-019>022-031-037>040-048>050-181100-
NORTHEAST WISCONSIN

CITY           SKY/WX    TMP DP  RH WIND       PRES   REMARKS
ANTIGO         FAIR      17  13  84 W9        29.87F WCI   6
SHAWANO        FAIR      23  15  71 SW7       29.92F WCI  14
OCONTO         FAIR      19  11  73 SW6       29.93F WCI  10
STURGEON BAY   FAIR      19  12  74 SW12      29.93F WCI   7
GREEN BAY      FAIR      17   9  70 SW9       29.96F WCI   6
MANITOWOC      FAIR      19  12  74 W14       29.98F WCI   6
APPLETON       FAIR      18   9  68 SW9       29.96S WCI   6
CLINTONVILLE   FAIR      16  10  79 SW8       29.94F WCI   5
OSHKOSH        FAIR      20  11  68 VRB7      29.99S WCI  11
$$

WIZ032>034-041-042-053>061-181100-
SOUTHWEST WISCONSIN

CITY           SKY/WX    TMP DP  RH WIND       PRES   REMARKS
LA CROSSE      FAIR      19  11  70 S10       30.05F WCI   7
SPARTA         FAIR      19  13  79 S3        30.03F
VIROQUA        FAIR      17  13  83 SW12      30.03F WCI   5
BOSCOBEL       FAIR      19  10  68 SW8       30.12F WCI   9
PRAIRIE DU CHI FAIR      17   8  67 CALM      30.12F
PLATTEVILLE    FAIR      18  12  76 SW14      30.12F WCI   5
$$

WIZ056-057-062-063-064-067-068-181100-
SOUTH CENTRAL WISCONSIN

CITY           SKY/WX    TMP DP  RH WIND       PRES   REMARKS
REEDSBURG      FAIR      19  11  71 SW8       30.04F WCI   9
BARABOO/DELLS  FAIR      19  11  70 W10       30.03S WCI   8
LONE ROCK      FAIR      18  10  71 W9        30.09F WCI   7
MINERAL POINT  FAIR      19  14  79 SW13      30.07F WCI   7
MADISON        FAIR      19  10  68 SW6       30.07F WCI  11
MIDDLETON      FAIR      21  12  69 W10       30.07F WCI  10
WATERTOWN      FAIR      18  11  75 SW9       30.05F WCI   6
MONROE         FAIR      19  12  73 SW20      30.09F WCI   4
JANESVILLE     FAIR      19  10  68 SW10      30.11F WCI   8
$$

WIZ051-052-058>065-066-070>072-181100-
SOUTHEAST WISCONSIN

CITY           SKY/WX    TMP DP  RH WIND       PRES   REMARKS
MILWAUKEE      FAIR      21  11  65 W13G20    30.06F WCI   9
WAUKESHA       FAIR      18   9  68 SW14      30.06F WCI   4
MILWAUKEE/TIMM FAIR      19   9  63 W16G23    30.05F WCI   5
RACINE         FAIR      19  10  68 W13G22    30.09F WCI   6
BURLINGTON     FAIR      17   9  69 W8G17     30.10S WCI   7
KENOSHA        FAIR      18   9  68 SW13G22   30.09F WCI   5
FOND DU LAC    FAIR      19   8  62 SW7       30.01F WCI  10
SHEBOYGAN      FAIR      20  12  71 W14       29.99F WCI   7
WEST BEND      FAIR      19  12  73 W9G17     30.02S WCI   9
JUNEAU         FAIR      17  10  73 SW14      30.04F WCI   3
$$

LSZ147-162-181100-
LAKE SUPERIOR

STATION/POSITION TIME  TEMP    WIND        PRES    WAVE
                       AIR SEA DIR/SP/G            HT/PER
                 (UTC) (F)     (DEG/KT/KT) (MB)    (FT/S)
DEVILS ISLAND    1000   29     220/ 16/ 20 1008.8F
SAXON HARBOR     0940   28     200/ 13/ 18 1009.1F
$$

LMZ867-665-643>646-181100-
LAKE MICHIGAN

STATION/POSITION TIME  TEMP    WIND        PRES    WAVE
                       AIR SEA DIR/SP/G            HT/PER
                 (UTC) (F)     (DEG/KT/KT) (MB)    (FT/S)
NORTHPORT PIER   0947   21     230/ 18     1012.2F
KEWAUNEE LAKESHO 1000   20     240/  6/  9 1013.7
SHEBOYGAN LAKESH 1000   22     240/ 12/ 15 1016.7F
PORT WASHINGTON  1000   21     270/  8/ 21 1017.9
MILWAUKEE LAKESH 1000   22     250/ 12/ 15   N/A
KENOSHA   LAKESH 1000   19     250/ 11/ 16 1019.3
$$

TC  - TEMPERATURE IN CELSIUS
VSB - VISIBILITY IN STATUTE MILES
WCI - WIND CHILL INDEX
HX  - HEAT INDEX




USA.gov is the U.S. government's official web portal to all federal, state and local government web resources and services.